Wolf Point, MT

11:17 AM MST on November 21, 2017 (GMT -0700)
Clayton

Weather History for KOLF - August, 2014

Change the Weather History Date:

Monday, August 18, 2014

  Actual Average Record
Temperature  
Mean Temperature 75 °F -  
Max Temperature 89 °F 86 °F 95 °F (2003)
Min Temperature 60 °F 53 °F 37 °F (2004)
Degree Days  
Heating Degree Days 0    
Cooling Degree Days 10    
Growing Degree Days 24 (Base 50)    
Moisture  
Dew Point 54 °F    
Average Humidity 58    
Maximum Humidity 90    
Minimum Humidity 22    
Precipitation  
Precipitation 0.00 in 0.04 in 0.81 in (2005)
Month to date precipitation 1.27 0.88  
Year to date precipitation 6.44 9.27  
Sea Level Pressure  
Sea Level Pressure 29.86 in    
Wind  
Wind Speed 8 mph (West)    
Max Wind Speed 13 mph    
Max Gust Speed 23 mph    
Visibility 10 miles    
Events      
T = Trace of Precipitation, MM = Missing Value Source: NWS Daily Summary

Daily Weather History Graph

Daily Weather History Graph

Search for Another Location

Airport or City:

Trip Planner

Search our weather history database for the weather conditions in past years. The results will help you decide how hot, cold, wet, or windy it might be!

Date:

Astronomy

Aug. 18, 2014 Rise Set
Actual Time 6:01 AM MDT 8:10 PM MDT
Civil Twilight 5:27 AM MDT 8:43 PM MDT
Nautical Twilight 4:45 AM MDT 9:25 PM MDT
Astronomical Twilight 3:57 AM MDT 10:12 PM MDT
Moon 12:04 AM MDT (8/18) 3:23 PM MDT (8/18)
Length of Visible Light 15h 16m
Length of Day
14h 09m
Last Quarter, 38% of the Moon is Illuminated
Aug 18
Last Quarter
Aug 25
New
Sep 2
First Quarter
Sep 8
Full
Sep 15
Last Quarter

Hourly Weather History & Observations

Time (MDT) Temp. Heat Index Dew Point Humidity Pressure Visibility Wind Dir Wind Speed Gust Speed Precip Events Conditions
12:53 AM 64.4 °F - 60.8 °F 88% 29.91 in 10.0 mi West 8.1 mph - N/A   Overcast
1:53 AM 63.0 °F - 59.0 °F 87% 29.88 in 10.0 mi WSW 8.1 mph - N/A   Mostly Cloudy
2:53 AM 63.0 °F - 59.0 °F 87% 29.88 in 10.0 mi West 8.1 mph - N/A   Partly Cloudy
3:53 AM 61.0 °F - 57.9 °F 90% 29.91 in 10.0 mi SW 5.8 mph - N/A   Clear
4:53 AM 61.0 °F - 57.9 °F 90% 29.91 in 10.0 mi WSW 6.9 mph - N/A   Clear
5:53 AM 60.1 °F - 57.0 °F 90% 29.91 in 8.0 mi WSW 9.2 mph - N/A   Clear
6:53 AM 60.1 °F - 57.0 °F 90% 29.92 in 6.0 mi WSW 9.2 mph - N/A   Clear
7:53 AM 63.0 °F - 57.9 °F 84% 29.93 in 9.0 mi WSW 8.1 mph - N/A   Clear
8:53 AM 66.9 °F - 59.0 °F 76% 29.92 in 10.0 mi WSW 8.1 mph - N/A   Partly Cloudy
9:53 AM 72.0 °F - 60.1 °F 66% 29.91 in 10.0 mi SW 5.8 mph - N/A   Clear
10:53 AM 80.1 °F 80.1 °F 55.0 °F 42% 29.89 in 9.0 mi WNW 11.5 mph - N/A   Clear
11:53 AM 82.0 °F 81.3 °F 54.0 °F 38% 29.88 in 9.0 mi West 8.1 mph - N/A   Clear
12:53 PM 84.0 °F 82.5 °F 53.1 °F 34% 29.86 in 9.0 mi West 8.1 mph - N/A   Partly Cloudy
1:53 PM 87.1 °F - 51.1 °F 29% 29.84 in 10.0 mi West 12.7 mph 17.3 mph N/A   Partly Cloudy
2:53 PM 88.0 °F - 48.9 °F 26% 29.83 in 10.0 mi West 11.5 mph 17.3 mph N/A   Scattered Clouds
3:53 PM 88.0 °F - 46.0 °F 23% 29.81 in 10.0 mi West 11.5 mph 23.0 mph N/A   Partly Cloudy
4:53 PM 88.0 °F - 45.0 °F 22% 29.80 in 10.0 mi WNW 9.2 mph - N/A   Clear
5:53 PM 86.0 °F - 48.0 °F 27% 29.79 in 10.0 mi West 10.4 mph - N/A   Clear
6:53 PM 82.9 °F - 50.0 °F 32% 29.78 in 10.0 mi WSW 6.9 mph - N/A   Clear
7:53 PM 75.9 °F - 54.0 °F 46% 29.79 in 10.0 mi NW 5.8 mph - N/A   Clear
8:53 PM 73.9 °F - 51.1 °F 45% 29.80 in 10.0 mi Calm Calm - N/A   Clear
10:53 PM 64.9 °F - 51.1 °F 61% 29.79 in 10.0 mi ESE 3.5 mph - N/A   Clear
11:53 PM 64.0 °F - 48.9 °F 58% 29.78 in 10.0 mi Calm Calm - N/A   Clear